This is the latest recevied weather packets stored in our database for station/object K9ZOG. If no packets are shown the sender has not sent any weather packets the latest 10 day(s).
| Time | Temp. | Humidity | Pressure | Rain* | Wind** | Luminosity | Snow |
|---|---|---|---|---|---|---|---|
| 1777757652 | 10° C | 35% | 1017 hPa | 0 mm | - | 471 W/m² | - |
| 1777757354 | 10° C | 38% | 1017 hPa | 0 mm | - | 490 W/m² | - |
| 1777757052 | 10° C | 37% | 1017 hPa | 0 mm | - | 507 W/m² | - |
| 1777756753 | 10° C | 38% | 1017 hPa | 0 mm | - | 350 W/m² | - |
| 1777756453 | 10° C | 38% | 1017.2 hPa | 0 mm | - | 535 W/m² | - |
| 1777756154 | 10° C | 37% | 1017.2 hPa | 0 mm | - | 528 W/m² | - |
| 1777755852 | 10° C | 39% | 1017.3 hPa | 0 mm | - | 424 W/m² | - |
| 1777755553 | 10° C | 38% | 1017.3 hPa | 0 mm | - | 75 W/m² | - |
| 1777755255 | 10° C | 40% | 1017.4 hPa | 0 mm | - | 74 W/m² | - |
| 1777754954 | 10° C | 40% | 1017.5 hPa | 0 mm | - | 74 W/m² | - |
| 1777754653 | 10° C | 38% | 1017.4 hPa | 0 mm | - | 78 W/m² | - |
| 1777754353 | 10° C | 41% | 1017.5 hPa | 0 mm | - | 259 W/m² | - |
| 1777754052 | 10° C | 42% | 1017.6 hPa | 0 mm | - | 655 W/m² | - |
| 1777753752 | 10° C | 42% | 1017.7 hPa | 0 mm | - | 665 W/m² | - |
| 1777753453 | 10° C | 41% | 1017.7 hPa | 0 mm | - | 681 W/m² | - |
| 1777753153 | 10° C | 42% | 1017.8 hPa | 0 mm | - | 692 W/m² | - |
| 1777752852 | 9.44° C | 42% | 1017.8 hPa | 0 mm | - | 707 W/m² | - |
| 1777752553 | 9.44° C | 43% | 1017.9 hPa | 0 mm | - | 292 W/m² | - |
| 1777752253 | 9.44° C | 45% | 1018 hPa | 0 mm | - | 652 W/m² | - |
| 1777751953 | 9.44° C | 46% | 1018 hPa | 0 mm | - | 743 W/m² | - |
| 1777751652 | 9.44° C | 44% | 1018.1 hPa | 0 mm | - | 629 W/m² | - |
| 1777751352 | 9.44° C | 46% | 1018.2 hPa | 0 mm | - | 773 W/m² | - |
| 1777751054 | 9.44° C | 44% | 1018.3 hPa | 0 mm | - | 789 W/m² | - |
| 1777750752 | 10° C | 43% | 1018.3 hPa | 0 mm | - | 801 W/m² | - |
| 1777750452 | 9.44° C | 43% | 1018.4 hPa | 0 mm | - | 813 W/m² | - |
* Rain latest hour (hover to see other rain measurements)
** Current wind speed in m/s (hover to see current wind gust speed)